STARLINK-4752 (53821 NORAD) Tracking and Keplerian Element Data

This shows tracking and keplerian element data for the satellite.

Feedback or suggestion? Click here.




ElementValue
Catalog53821
NameSTARLINK-4752
Epoch Orbit1053
Epoch Day325.33334491
Epoch Year2022
RAAN305.6006
Inclination53.2139
Eccentricity0.0003644
Argument of Perigee6.8137
Mean Anonmoly40.0075
Mean Motion15.73139445
Decay Rate0.00084346
L11 53821U 22114D 22325.33334491 .00084346 00000+0 60077-3 0 9990
L22 53821 53.2139 305.6006 0003644 6.8137 40.0075 15.73139445 10533



Live tracking and technical data element details for STARLINK-4752 (NORAD 53821). STARLINK-4752 can be tracked NOW for your location showing map with azimuth and elevation plus other details from your city location.







IsCatalogInMostPopularTable: catalog: 53821, numindb: -1

Insert: records affected: 1


GetName: 53821 STARLINK-4752

Hit Count: inserted at: Thu, 08 Dec 2022 09:58:23 GMT